Weather History for KLAS - February, 2013

Change the Weather History Date:

Friday, February 1, 2013

  Actual Average Record
Temperature  
Mean Temperature 54 °F 50 °F  
Max Temperature 66 °F 60 °F 81 °F (2003)
Min Temperature 42 °F 41 °F 17 °F (1937)
Degree Days  
Heating Degree Days 11 15  
Month to date heating degree days 11 15  
Since 1 July heating degree days 1275 1367  
Cooling Degree Days 0 0  
Month to date cooling degree days 0 0  
Year to date cooling degree days 0 0  
Growing Degree Days 3 (Base 50)    
Moisture  
Dew Point 32 °F    
Average Humidity 48    
Maximum Humidity 70    
Minimum Humidity 26    
Precipitation  
Precipitation 0.00 in 0.02 in 1.01 in (1940)
Month to date precipitation 0.00 0.02  
Year to date precipitation 0.43 0.56  
Snow  
Snow 0.00 in 0.00 in 0.30 in (1979)
Month to date snowfall 0.0 0.0  
Since 1 July snowfall T 0.2  
Snow Depth 0.00 in    
Sea Level Pressure  
Sea Level Pressure 30.19 in    
Wind  
Wind Speed 5 mph (SSW)    
Max Wind Speed 13 mph    
Max Gust Speed 13 mph    
Visibility 10 miles    
Events      
T = Trace of Precipitation, MM = Missing Value Source: NWS Daily Summary

Daily Weather History Graph

Daily Weather History Graph

Search for Another Location

Airport or City:

Trip Planner

Search our weather history database for the weather conditions in past years. The results will help you decide how hot, cold, wet, or windy it might be!

Date:

Astronomy

Feb. 01, 2013 Rise Set
Actual Time 6:41 AM PST 5:07 PM PST
Civil Twilight 6:14 AM PST 5:34 PM PST
Nautical Twilight 5:43 AM PST 6:05 PM PST
Astronomical Twilight 5:13 AM PST 6:35 PM PST
Moon 11:06 PM PST (2/1) 9:29 AM PST (2/1)
Length of Visible Light 11h 20m
Length of Day
10h 26m
Waning Gibbous, 69% of the Moon is Illuminated
Feb 1
Waning Gibbous
Feb 3
Last Quarter
Feb 9
New
Feb 17
First Quarter
Feb 25
Full

Hourly Weather History & Observations

Time (PST) Temp. Windchill Dew Point Humidity Pressure Visibility Wind Dir Wind Speed Gust Speed Precip Events Conditions
12:56 AM 46.9 °F - 34.0 °F 61% 30.17 in 10.0 mi SSW 4.6 mph - N/A   Clear
1:56 AM 44.6 °F 40.2 °F 33.8 °F 66% 30.18 in 10.0 mi SW 8.1 mph - N/A   Clear
2:56 AM 45.0 °F 40.6 °F 33.1 °F 63% 30.17 in 10.0 mi SSW 8.1 mph - N/A   Clear
3:56 AM 43.0 °F 36.8 °F 33.1 °F 68% 30.17 in 10.0 mi SSW 11.5 mph - N/A   Clear
4:56 AM 42.1 °F 37.7 °F 32.0 °F 67% 30.17 in 10.0 mi SSW 6.9 mph - N/A   Clear
5:56 AM 42.8 °F 38.6 °F 32.0 °F 66% 30.19 in 10.0 mi SSW 6.9 mph - N/A   Clear
6:56 AM 43.0 °F 38.8 °F 32.0 °F 65% 30.20 in 10.0 mi SSW 6.9 mph - N/A   Clear
7:56 AM 46.9 °F - 33.1 °F 59% 30.22 in 10.0 mi South 9.2 mph - N/A   Clear
8:56 AM 52.0 °F - 33.1 °F 49% 30.23 in 10.0 mi Calm Calm - N/A   Clear
9:56 AM 55.9 °F - 30.9 °F 39% 30.24 in 10.0 mi Calm Calm - N/A   Partly Cloudy
10:56 AM 57.9 °F - 30.9 °F 36% 30.22 in 10.0 mi SSE 3.5 mph - N/A   Partly Cloudy
11:56 AM 60.1 °F - 30.9 °F 33% 30.20 in 10.0 mi Calm Calm - N/A   Partly Cloudy
12:56 PM 62.1 °F - 30.0 °F 30% 30.17 in 10.0 mi South 3.5 mph - N/A   Partly Cloudy
1:56 PM 64.0 °F - 28.9 °F 27% 30.15 in 10.0 mi South 3.5 mph - N/A   Partly Cloudy
2:56 PM 64.4 °F - 28.4 °F 26% 30.16 in 10.0 mi SSW 3.5 mph - N/A   Partly Cloudy
3:56 PM 64.9 °F - 28.9 °F 26% 30.14 in 10.0 mi Calm Calm - N/A   Scattered Clouds
4:56 PM 62.1 °F - 32.0 °F 32% 30.14 in 10.0 mi South 5.8 mph - N/A   Scattered Clouds
5:56 PM 61.0 °F - 32.0 °F 34% 30.16 in 10.0 mi South 5.8 mph - N/A   Scattered Clouds
6:56 PM 57.9 °F - 33.1 °F 39% 30.19 in 10.0 mi SSW 8.1 mph - N/A   Scattered Clouds
7:56 PM 55.9 °F - 33.1 °F 42% 30.20 in 10.0 mi SW 6.9 mph - N/A   Scattered Clouds
8:56 PM 54.0 °F - 33.1 °F 45% 30.21 in 10.0 mi SSW 6.9 mph - N/A   Scattered Clouds
9:56 PM 51.1 °F - 34.0 °F 52% 30.22 in 10.0 mi SSW 6.9 mph - N/A   Mostly Cloudy
10:56 PM 51.1 °F - 34.0 °F 52% 30.22 in 10.0 mi SSW 6.9 mph - N/A   Mostly Cloudy
11:56 PM 50.0 °F - 34.0 °F 54% 30.23 in 10.0 mi South 4.6 mph - N/A   Mostly Cloudy